QPF
0.02 0.04 0.04 0.03 0.03 0.03 0.03 0.02 0.03 0.02 0.01 0.02 0.03 0.02 0.02 0.03 0.03 0.04 0.03 0.04 0.04 0.04 0.04 0.04 0.04 0.04 0.07 0.09 0.09 0.07 0.06 0.04 0.03 0.03 0.04 0.06 0.07 0.08
0.04 0.04 0.04 0.03 0.04 0.04 0.04 0.04 0.04 0.04 0.02 0.01 0.02 0.02 0.02 0.02 0.03 0.02 0.03 0.05 0.04 0.03 0.04 0.05 0.06 0.05 0.07 0.09 0.08 0.08 0.07 0.06 0.04 0.03 0.04 0.07 0.10 0.10
0.04 0.04 0.05 0.06 0.05 0.04 0.03 0.03 0.03 0.03 0.02 0.02 0.02 0.02 0.02 0.02 0.02 0.02 0.03 0.04 0.04 0.05 0.06 0.08 0.11 0.10 0.10 0.12 0.08 0.07 0.07 0.06 0.05 0.04 0.06 0.07 0.09 0.08
0.04 0.06 0.06 0.05 0.03 0.02 0.02 0.02 0.02 0.03 0.03 0.03 0.02 0.02 0.02 0.02 0.03 0.03 0.03 0.04 0.05 0.06 0.05 0.06 0.08 0.12 0.14 0.15 0.12 0.09 0.08 0.07 0.06 0.05 0.05 0.04 0.06 0.06
0.04 0.03 0.02 0.02 0.02 0.02 0.02 0.01 0.02 0.03 0.03 0.04 0.04 0.03 0.03 0.03 0.03 0.03 0.03 0.04 0.03 0.05 0.05 0.05 0.07 0.09 0.14 0.18 0.17 0.13 0.11 0.10 0.08 0.06 0.05 0.05 0.05 0.04
0.02 0.02 0.01 0.01 0.01 0.01 0.02 0.02 0.02 0.02 0.02 0.02 0.02 0.03 0.04 0.04 0.04 0.03 0.03 0.04 0.03 0.03 0.04 0.04 0.05 0.08 0.11 0.14 0.18 0.18 0.15 0.12 0.11 0.10 0.08 0.06 0.05 0.04
0.02 0.02 0.02 0.02 0.02 0.02 0.02 0.01 0.02 0.01 0.01 0.02 0.02 0.02 0.04 0.06 0.06 0.05 0.05 0.04 0.05 0.05 0.04 0.04 0.04 0.05 0.05 0.08 0.11 0.15 0.17 0.15 0.13 0.11 0.09 0.08 0.07 0.05
0.03 0.03 0.03 0.03 0.03 0.03 0.03 0.02 0.02 0.01 0.01 0.01 0.02 0.02 0.02 0.03 0.05 0.07 0.07 0.08 0.08 0.07 0.06 0.06 0.05 0.05 0.05 0.07 0.07 0.07 0.09 0.12 0.13 0.12 0.10 0.10 0.10 0.08
0.04 0.04 0.04 0.03 0.04 0.04 0.04 0.04 0.03 0.02 0.02 0.01 0.01 0.01 0.01 0.02 0.03 0.05 0.07 0.08 0.09 0.10 0.08 0.07 0.07 0.07 0.06 0.07 0.06 0.05 0.05 0.07 0.09 0.09 0.08 0.08 0.09 0.08
0.02 0.02 0.03 0.04 0.05 0.05 0.04 0.04 0.03 0.03 0.02 0.02 0.01 0.01 0.01 0.01 0.02 0.02 0.03 0.04 0.05 0.07 0.08 0.07 0.05 0.06 0.06 0.07 0.06 0.05 0.05 0.05 0.05 0.05 0.05 0.05 0.04 0.04
0.01 0.01 0.02 0.03 0.04 0.05 0.05 0.04 0.04 0.03 0.03 0.03 0.02 0.01 0.01 0.01 0.02 0.02 0.02 0.03 0.03 0.03 0.03 0.05 0.04 0.05 0.05 0.05 0.05 0.05 0.05 0.04 0.04 0.04 0.04 0.05 0.06 0.06
0.02 0.03 0.02 0.03 0.05 0.05 0.05 0.05 0.04 0.03 0.03 0.02 0.02 0.01 0.01 0.02 0.02 0.02 0.02 0.03 0.02 0.02 0.02 0.02 0.03 0.04 0.05 0.04 0.03 0.03 0.03 0.04 0.04 0.04 0.04 0.04 0.06 0.07
0.00 0.01 0.01 0.01 0.03 0.04 0.03 0.02 0.04 0.07 0.05 0.03 0.03 0.02 0.01 0.01 0.01 0.02 0.02 0.03 0.02 0.02 0.02 0.02 0.03 0.03 0.04 0.03 0.03 0.02 0.02 0.04 0.04 0.03 0.05 0.05 0.06 0.05
0.02 0.02 0.01 0.01 0.01 0.02 0.03 0.03 0.03 0.05 0.06 0.03 0.02 0.02 0.01 0.02 0.02 0.03 0.03 0.03 0.02 0.02 0.02 0.02 0.02 0.02 0.03 0.03 0.03 0.02 0.02 0.05 0.06 0.05 0.06 0.05 0.04 0.06
0.04 0.06 0.04 0.02 0.02 0.04 0.04 0.04 0.04 0.03 0.03 0.02 0.01 0.01 0.01 0.02 0.02 0.02 0.02 0.02 0.01 0.01 0.01 0.02 0.02 0.02 0.03 0.03 0.03 0.03 0.02 0.03 0.05 0.07 0.06 0.05 0.04 0.04
0.04 0.05 0.04 0.03 0.04 0.05 0.05 0.05 0.05 0.04 0.04 0.03 0.02 0.01 0.01 0.01 0.02 0.02 0.03 0.03 0.02 0.01 0.01 0.02 0.02 0.02 0.02 0.03 0.03 0.02 0.02 0.03 0.04 0.06 0.08 0.08 0.06 0.06
0.02 0.02 0.03 0.03 0.04 0.04 0.04 0.03 0.03 0.03 0.03 0.03 0.03 0.02 0.02 0.02 0.02 0.02 0.03 0.03 0.04 0.03 0.02 0.02 0.01 0.01 0.02 0.02 0.03 0.02 0.02 0.03 0.03 0.04 0.05 0.06 0.04 0.04
0.02 0.02 0.03 0.03 0.03 0.03 0.03 0.03 0.03 0.03 0.03 0.03 0.04 0.04 0.03 0.03 0.02 0.02 0.02 0.02 0.03 0.04 0.04 0.03 0.02 0.02 0.02 0.01 0.02 0.02 0.02 0.02 0.03 0.03 0.03 0.03 0.04 0.03
0.04 0.03 0.03 0.03 0.03 0.04 0.04 0.04 0.04 0.03 0.03 0.03 0.03 0.04 0.04 0.03 0.03 0.03 0.03 0.03 0.03 0.04 0.04 0.05 0.05 0.04 0.03 0.03 0.02 0.02 0.02 0.02 0.02 0.03 0.04 0.03 0.04 0.04
0.06 0.06 0.05 0.05 0.05 0.05 0.05 0.05 0.04 0.04 0.03 0.03 0.03 0.03 0.03 0.03 0.03 0.03 0.03 0.03 0.03 0.04 0.04 0.04 0.04 0.05 0.06 0.05 0.03 0.03 0.02 0.02 0.02 0.03 0.04 0.03 0.04 0.03
0.04 0.04 0.04 0.05 0.04 0.04 0.04 0.04 0.04 0.04 0.04 0.04 0.03 0.03 0.03 0.04 0.04 0.04 0.03 0.03 0.03 0.03 0.03 0.02 0.02 0.04 0.05 0.06 0.06 0.05 0.04 0.04 0.05 0.04 0.04 0.04 0.04 0.03
0.03 0.03 0.03 0.03 0.03 0.03 0.02 0.02 0.02 0.02 0.03 0.03 0.02 0.02 0.02 0.02 0.03 0.04 0.04 0.03 0.02 0.02 0.02 0.02 0.03 0.03 0.03 0.04 0.05 0.06 0.05 0.04 0.04 0.05 0.05 0.05 0.04 0.04
0.03 0.02 0.02 0.02 0.02 0.02 0.02 0.02 0.01 0.01 0.01 0.02 0.02 0.01 0.02 0.02 0.01 0.02 0.03 0.03 0.03 0.02 0.02 0.02 0.03 0.03 0.03 0.03 0.03 0.03 0.04 0.04 0.04 0.05 0.05 0.04 0.04 0.05
MSLP
1008.85 1008.98 1009.15 1009.34 1009.51 1009.63 1009.67 1009.64 1009.55 1009.41 1009.27 1009.14 1009.07 1009.07 1009.12 1009.22 1009.33 1009.42 1009.46 1009.42 1009.31 1009.13 1008.93 1008.75 1008.63 1008.64 1008.80 1009.14 1009.66 1010.34 1011.15 1012.04 1012.96 1013.88 1014.76 1015.58 1016.33 1017.02
1009.69 1009.67 1009.68 1009.69 1009.69 1009.65 1009.57 1009.45 1009.30 1009.14 1009.01 1008.92 1008.90 1008.94 1009.02 1009.13 1009.22 1009.26 1009.22 1009.09 1008.87 1008.58 1008.26 1007.96 1007.74 1007.65 1007.73 1008.01 1008.49 1009.15 1009.97 1010.90 1011.88 1012.88 1013.84 1014.75 1015.58 1016.34
1010.42 1010.28 1010.16 1010.03 1009.90 1009.75 1009.57 1009.39 1009.21 1009.04 1008.92 1008.86 1008.85 1008.90 1008.98 1009.07 1009.12 1009.10 1008.99 1008.78 1008.47 1008.09 1007.68 1007.30 1007.00 1006.83 1006.84 1007.05 1007.48 1008.11 1008.91 1009.84 1010.86 1011.92 1012.96 1013.95 1014.87 1015.69
1011.10 1010.88 1010.66 1010.45 1010.23 1010.00 1009.77 1009.55 1009.34 1009.16 1009.03 1008.96 1008.94 1008.97 1009.01 1009.04 1009.03 1008.96 1008.78 1008.51 1008.15 1007.73 1007.28 1006.85 1006.50 1006.27 1006.21 1006.36 1006.72 1007.29 1008.05 1008.96 1009.98 1011.06 1012.15 1013.20 1014.18 1015.07
1011.77 1011.50 1011.24 1010.98 1010.71 1010.44 1010.17 1009.91 1009.68 1009.47 1009.31 1009.19 1009.12 1009.08 1009.06 1009.02 1008.95 1008.81 1008.60 1008.31 1007.94 1007.52 1007.07 1006.64 1006.27 1006.02 1005.91 1005.99 1006.27 1006.76 1007.44 1008.29 1009.28 1010.34 1011.44 1012.52 1013.54 1014.47
1012.46 1012.18 1011.89 1011.61 1011.32 1011.02 1010.72 1010.43 1010.15 1009.89 1009.66 1009.47 1009.31 1009.18 1009.07 1008.95 1008.82 1008.64 1008.42 1008.14 1007.81 1007.44 1007.04 1006.65 1006.31 1006.05 1005.91 1005.93 1006.13 1006.52 1007.10 1007.86 1008.77 1009.79 1010.85 1011.93 1012.95 1013.90
1013.15 1012.86 1012.57 1012.28 1011.97 1011.65 1011.31 1010.97 1010.63 1010.29 1009.98 1009.69 1009.42 1009.19 1008.98 1008.79 1008.60 1008.41 1008.21 1007.98 1007.72 1007.43 1007.13 1006.82 1006.54 1006.30 1006.15 1006.12 1006.24 1006.53 1007.01 1007.66 1008.47 1009.40 1010.40 1011.43 1012.43 1013.36
1013.80 1013.51 1013.20 1012.89 1012.56 1012.21 1011.84 1011.44 1011.02 1010.60 1010.19 1009.79 1009.42 1009.08 1008.78 1008.52 1008.30 1008.11 1007.94 1007.78 1007.61 1007.44 1007.25 1007.04 1006.84 1006.65 1006.51 1006.46 1006.52 1006.73 1007.10 1007.64 1008.34 1009.16 1010.08 1011.03 1011.97 1012.86
1014.34 1014.03 1013.72 1013.39 1013.03 1012.64 1012.22 1011.77 1011.28 1010.78 1010.27 1009.77 1009.30 1008.87 1008.49 1008.18 1007.93 1007.75 1007.62 1007.52 1007.45 1007.39 1007.31 1007.21 1007.10 1006.98 1006.88 1006.83 1006.86 1007.01 1007.30 1007.74 1008.33 1009.05 1009.87 1010.73 1011.60 1012.42
1014.74 1014.41 1014.08 1013.72 1013.34 1012.92 1012.46 1011.95 1011.41 1010.85 1010.27 1009.69 1009.14 1008.64 1008.20 1007.84 1007.57 1007.38 1007.27 1007.23 1007.23 1007.25 1007.26 1007.26 1007.23 1007.18 1007.13 1007.11 1007.14 1007.26 1007.50 1007.88 1008.39 1009.02 1009.75 1010.52 1011.30 1012.04
1015.01 1014.66 1014.30 1013.93 1013.53 1013.08 1012.60 1012.07 1011.50 1010.90 1010.28 1009.67 1009.07 1008.51 1008.03 1007.62 1007.31 1007.10 1006.98 1006.94 1006.97 1007.02 1007.09 1007.14 1007.18 1007.19 1007.20 1007.22 1007.28 1007.41 1007.64 1007.99 1008.45 1009.01 1009.66 1010.35 1011.04 1011.71
1015.18 1014.82 1014.46 1014.08 1013.67 1013.23 1012.75 1012.22 1011.65 1011.05 1010.43 1009.80 1009.18 1008.59 1008.06 1007.61 1007.25 1006.99 1006.82 1006.73 1006.72 1006.76 1006.82 1006.89 1006.96 1007.01 1007.06 1007.13 1007.23 1007.39 1007.64 1007.98 1008.42 1008.95 1009.54 1010.16 1010.78 1011.37
1015.34 1014.98 1014.62 1014.25 1013.85 1013.43 1012.97 1012.48 1011.94 1011.37 1010.77 1010.15 1009.53 1008.93 1008.36 1007.86 1007.43 1007.08 1006.83 1006.65 1006.56 1006.52 1006.53 1006.56 1006.61 1006.67 1006.75 1006.85 1006.99 1007.19 1007.47 1007.83 1008.26 1008.77 1009.32 1009.89 1010.46 1010.98
1015.52 1015.17 1014.83 1014.48 1014.12 1013.73 1013.31 1012.86 1012.38 1011.85 1011.29 1010.71 1010.10 1009.50 1008.91 1008.35 1007.84 1007.40 1007.02 1006.73 1006.51 1006.35 1006.26 1006.21 1006.21 1006.24 1006.30 1006.42 1006.58 1006.81 1007.11 1007.49 1007.92 1008.42 1008.94 1009.48 1010.00 1010.49
1015.74 1015.42 1015.10 1014.78 1014.45 1014.10 1013.73 1013.33 1012.90 1012.43 1011.93 1011.39 1010.81 1010.21 1009.60 1009.00 1008.41 1007.87 1007.38 1006.95 1006.59 1006.30 1006.07 1005.92 1005.82 1005.79 1005.82 1005.91 1006.07 1006.30 1006.60 1006.97 1007.40 1007.87 1008.38 1008.89 1009.38 1009.84
1015.97 1015.67 1015.37 1015.08 1014.77 1014.46 1014.13 1013.78 1013.41 1012.99 1012.54 1012.04 1011.50 1010.92 1010.31 1009.67 1009.04 1008.41 1007.82 1007.27 1006.78 1006.36 1006.00 1005.73 1005.53 1005.41 1005.36 1005.40 1005.51 1005.70 1005.97 1006.31 1006.71 1007.15 1007.62 1008.11 1008.59 1009.04
1016.13 1015.85 1015.57 1015.29 1015.01 1014.71 1014.41 1014.09 1013.75 1013.38 1012.98 1012.53 1012.02 1011.48 1010.88 1010.25 1009.59 1008.92 1008.26 1007.63 1007.05 1006.52 1006.06 1005.67 1005.37 1005.15 1005.01 1004.96 1005.00 1005.12 1005.32 1005.59 1005.92 1006.31 1006.74 1007.20 1007.66 1008.12
1016.15 1015.88 1015.61 1015.33 1015.05 1014.76 1014.46 1014.15 1013.84 1013.50 1013.13 1012.72 1012.27 1011.77 1011.21 1010.61 1009.97 1009.31 1008.64 1007.97 1007.34 1006.75 1006.22 1005.76 1005.36 1005.05 1004.82 1004.67 1004.60 1004.62 1004.72 1004.90 1005.14 1005.46 1005.83 1006.24 1006.69 1007.15
1016.01 1015.74 1015.46 1015.17 1014.87 1014.57 1014.26 1013.95 1013.64 1013.32 1012.98 1012.61 1012.21 1011.76 1011.27 1010.72 1010.14 1009.52 1008.89 1008.25 1007.62 1007.02 1006.46 1005.95 1005.50 1005.12 1004.80 1004.55 1004.38 1004.28 1004.26 1004.33 1004.47 1004.69 1004.98 1005.34 1005.76 1006.22
1015.71 1015.43 1015.13 1014.83 1014.51 1014.18 1013.86 1013.54 1013.23 1012.91 1012.59 1012.26 1011.90 1011.51 1011.09 1010.62 1010.11 1009.57 1009.01 1008.43 1007.86 1007.29 1006.75 1006.23 1005.76 1005.32 1004.94 1004.61 1004.34 1004.14 1004.00 1003.95 1003.98 1004.10 1004.31 1004.60 1004.98 1005.42
1015.31 1015.02 1014.71 1014.39 1014.05 1013.70 1013.36 1013.02 1012.70 1012.38 1012.08 1011.77 1011.45 1011.12 1010.76 1010.37 1009.95 1009.50 1009.02 1008.53 1008.02 1007.52 1007.02 1006.54 1006.07 1005.63 1005.21 1004.82 1004.48 1004.18 1003.95 1003.79 1003.72 1003.74 1003.85 1004.08 1004.39 1004.80
1014.92 1014.62 1014.30 1013.95 1013.60 1013.23 1012.87 1012.52 1012.19 1011.87 1011.57 1011.27 1010.98 1010.69 1010.38 1010.05 1009.70 1009.33 1008.93 1008.53 1008.10 1007.67 1007.24 1006.81 1006.38 1005.95 1005.53 1005.12 1004.74 1004.39 1004.08 1003.84 1003.68 1003.60 1003.63 1003.77 1004.02 1004.38
1014.59 1014.29 1013.96 1013.61 1013.24 1012.87 1012.50 1012.14 1011.79 1011.47 1011.16 1010.87 1010.59 1010.31 1010.02 1009.73 1009.42 1009.10 1008.77 1008.43 1008.08 1007.72 1007.35 1006.98 1006.60 1006.22 1005.82 1005.43 1005.04 1004.67 1004.33 1004.03 1003.80 1003.65 1003.60 1003.66 1003.83 1004.11
Thickness
5707 5706 5704 5703 5702 5701 5700 5698 5695 5693 5695 5699 5700 5703 5703 5703 5704 5704 5704 5705 5705 5705 5705 5705 5705 5706 5706 5707 5707 5706 5705 5705 5704 5703 5703 5704 5704 5705
5702 5700 5699 5698 5696 5696 5695 5693 5691 5689 5689 5693 5694 5696 5697 5699 5699 5699 5699 5700 5700 5700 5701 5701 5702 5702 5703 5704 5704 5703 5703 5702 5701 5700 5700 5700 5700 5700
5697 5695 5693 5692 5690 5689 5688 5687 5686 5685 5684 5687 5688 5689 5690 5691 5693 5693 5694 5695 5696 5696 5696 5697 5697 5698 5699 5699 5700 5699 5699 5699 5698 5697 5697 5696 5696 5696
5692 5690 5688 5688 5685 5684 5682 5682 5681 5680 5680 5680 5681 5682 5683 5685 5686 5687 5688 5690 5690 5691 5691 5692 5692 5693 5693 5694 5695 5695 5695 5695 5694 5694 5693 5692 5692 5692
5687 5685 5684 5682 5680 5679 5677 5676 5676 5676 5675 5674 5675 5675 5676 5678 5678 5680 5681 5682 5684 5685 5686 5686 5686 5687 5688 5690 5690 5691 5690 5690 5690 5689 5688 5688 5687 5687
5682 5681 5679 5677 5676 5674 5673 5672 5671 5670 5670 5669 5668 5668 5669 5670 5670 5671 5672 5674 5676 5678 5679 5680 5681 5681 5682 5684 5685 5686 5685 5684 5684 5683 5683 5682 5681 5681
5677 5675 5675 5673 5672 5670 5670 5668 5666 5665 5664 5663 5662 5661 5662 5662 5662 5664 5664 5666 5668 5670 5670 5672 5674 5675 5676 5678 5680 5680 5679 5678 5678 5678 5677 5677 5676 5676
5670 5669 5668 5667 5666 5665 5665 5664 5662 5660 5658 5656 5656 5655 5655 5655 5656 5657 5656 5657 5659 5663 5662 5664 5666 5667 5669 5671 5673 5673 5672 5672 5672 5671 5671 5671 5671 5671
5662 5662 5662 5662 5660 5659 5659 5659 5657 5656 5654 5652 5651 5650 5650 5650 5649 5650 5650 5650 5652 5654 5654 5656 5658 5659 5662 5663 5664 5665 5664 5664 5665 5665 5665 5665 5665 5665
5656 5655 5654 5653 5653 5652 5652 5652 5651 5650 5649 5647 5647 5647 5646 5646 5645 5644 5645 5645 5646 5647 5647 5648 5651 5651 5654 5655 5656 5656 5657 5657 5658 5658 5658 5658 5658 5658
5650 5648 5647 5646 5646 5645 5644 5643 5644 5644 5643 5642 5642 5641 5641 5640 5640 5639 5638 5638 5639 5641 5640 5640 5643 5644 5646 5647 5649 5650 5650 5651 5651 5651 5652 5651 5651 5651
5643 5642 5641 5640 5639 5637 5636 5636 5636 5636 5636 5636 5635 5635 5635 5634 5634 5633 5633 5632 5632 5633 5634 5633 5635 5636 5638 5641 5641 5642 5643 5643 5644 5644 5645 5645 5645 5645
5637 5636 5635 5633 5632 5631 5630 5630 5629 5630 5629 5628 5628 5629 5629 5629 5628 5627 5627 5626 5625 5626 5628 5627 5628 5629 5629 5632 5633 5634 5635 5636 5637 5637 5638 5638 5638 5638
5631 5629 5628 5627 5625 5625 5624 5624 5623 5623 5623 5622 5622 5622 5622 5622 5622 5621 5621 5620 5620 5621 5622 5621 5622 5622 5623 5623 5625 5626 5627 5628 5629 5630 5631 5631 5631 5631
5625 5624 5622 5621 5620 5619 5618 5618 5617 5617 5616 5616 5616 5616 5616 5616 5615 5615 5615 5615 5615 5615 5615 5615 5615 5615 5616 5616 5617 5618 5619 5620 5621 5622 5623 5623 5624 5624
5619 5618 5616 5615 5613 5612 5611 5611 5611 5610 5609 5609 5609 5610 5609 5609 5608 5608 5608 5608 5608 5608 5608 5608 5608 5609 5609 5609 5610 5611 5611 5612 5613 5613 5614 5615 5616 5617
5613 5611 5610 5608 5607 5605 5604 5603 5603 5603 5602 5602 5603 5603 5603 5603 5602 5601 5600 5600 5599 5599 5600 5599 5599 5600 5601 5601 5601 5602 5603 5604 5605 5606 5606 5608 5609 5610
5608 5606 5604 5601 5600 5598 5597 5596 5596 5596 5595 5596 5596 5596 5596 5596 5595 5594 5593 5592 5592 5591 5590 5590 5590 5592 5593 5593 5592 5594 5595 5596 5597 5598 5599 5600 5602 5603
5603 5601 5598 5596 5594 5592 5590 5589 5589 5588 5588 5588 5588 5588 5589 5589 5588 5587 5586 5585 5584 5583 5582 5581 5582 5583 5584 5585 5586 5585 5587 5588 5589 5590 5591 5593 5594 5596
5598 5596 5594 5591 5589 5586 5585 5583 5583 5582 5582 5582 5581 5581 5581 5581 5581 5580 5579 5577 5577 5576 5575 5574 5574 5575 5576 5576 5577 5577 5578 5580 5582 5583 5584 5584 5586 5587
5594 5592 5590 5587 5585 5582 5580 5578 5576 5575 5575 5575 5575 5574 5574 5574 5574 5573 5572 5569 5568 5568 5568 5567 5567 5566 5566 5567 5568 5570 5571 5572 5574 5575 5576 5577 5579 5581
5590 5588 5586 5583 5580 5578 5575 5573 5571 5569 5569 5568 5568 5567 5567 5566 5566 5566 5565 5563 5562 5561 5560 5560 5559 5559 5559 5561 5562 5563 5565 5566 5567 5568 5568 5571 5573 5575
5586 5584 5582 5578 5576 5573 5570 5568 5566 5564 5563 5562 5561 5561 5560 5559 5559 5558 5558 5557 5555 5554 5553 5553 5553 5553 5553 5554 5555 5556 5557 5559 5561 5562 5563 5564 5566 5567